This is the latest recevied weather packets stored in our database for station/object OE-11051. If no packets are shown the sender has not sent any weather packets the latest 10 day(s).
| Time | Temp. | Humidity | Pressure | Rain* | Wind** | Luminosity | Snow |
|---|---|---|---|---|---|---|---|
| 1788077107 | 20.56° C | 64% | 1017.4 hPa | 0 mm | - | 458 W/m² | - |
| 1788076507 | 20° C | 67% | 1017.5 hPa | 0 mm | - | 438 W/m² | - |
| 1788075679 | 19.44° C | 70% | 1017.6 hPa | 0 mm | - | 245 W/m² | - |
| 1788075306 | 18.89° C | 71% | 1017.5 hPa | 0 mm | - | 245 W/m² | - |
| 1788074707 | 18.89° C | 73% | 1017.5 hPa | 0 mm | - | 271 W/m² | - |
| 1788073880 | 17.78° C | 76% | 1017.5 hPa | 0 mm | - | 303 W/m² | - |
| 1788073506 | 17.22° C | 79% | 1017.6 hPa | 0 mm | - | 135 W/m² | - |
| 1788072906 | 17.22° C | 80% | 1017.8 hPa | 0 mm | - | 187 W/m² | - |
| 1788072080 | 16.67° C | 80% | 1017.7 hPa | 0 mm | - | 264 W/m² | - |
| 1788071707 | 16.67° C | 81% | 1017.6 hPa | 0 mm | - | 181 W/m² | - |
| 1788071107 | 16.11° C | 82% | 1017.4 hPa | 0 mm | - | 90 W/m² | - |
| 1788070280 | 16.11° C | 84% | 1017.4 hPa | 0 mm | - | 90 W/m² | - |
| 1788069906 | 15.56° C | 84% | 1017.4 hPa | 0 mm | - | 90 W/m² | - |
| 1788069307 | 15.56° C | 87% | 1017.3 hPa | 0 mm | - | 84 W/m² | - |
| 1788068480 | 15° C | 90% | 1017.4 hPa | 0 mm | - | 71 W/m² | - |
| 1788068107 | 14.44° C | 90% | 1017.5 hPa | 0 mm | - | 77 W/m² | - |
| 1788067507 | 13.89° C | 92% | 1017.6 hPa | 0 mm | - | 52 W/m² | - |
| 1788066680 | 13.33° C | 92% | 1017.5 hPa | 0 mm | - | 26 W/m² | - |
| 1788066306 | 13.33° C | 92% | 1017.5 hPa | 0 mm | - | 13 W/m² | - |
| 1788065706 | 13.33° C | 92% | 1017.4 hPa | 0 mm | - | 6 W/m² | - |
| 1788064879 | 13.89° C | 91% | 1017.4 hPa | 0 mm | - | 6 W/m² | - |
| 1788064506 | 13.89° C | 91% | 1017.4 hPa | 0 mm | - | 0 W/m² | - |
| 1788063906 | 13.89° C | 90% | 1017.3 hPa | 0 mm | - | 0 W/m² | - |
| 1788063079 | 13.33° C | 92% | 1017.4 hPa | 0 mm | - | 0 W/m² | - |
| 1788062706 | 13.33° C | 92% | 1017.5 hPa | 0 mm | - | 0 W/m² | - |
* Rain latest hour (hover to see other rain measurements)
** Current wind speed in m/s (hover to see current wind gust speed)